Year,Month,Day,Hour,Minute,Value (Times are PST for windgust in km/hr)
2011,04,10,00,00,8.10
2011,04,10,00,01,8.10
2011,04,10,00,05,8.10
2011,04,10,00,06,4.80
2011,04,10,00,07,8.10
2011,04,10,00,08,9.60
2011,04,10,00,09,6.40
2011,04,10,00,10,3.20
2011,04,10,00,11,8.10
2011,04,10,00,12,8.10
2011,04,10,00,13,6.40
2011,04,10,00,14,6.40
2011,04,10,00,15,8.10
2011,04,10,00,16,6.40
2011,04,10,00,17,6.40
2011,04,10,00,18,3.20
2011,04,10,00,19,3.20
2011,04,10,00,20,6.40
2011,04,10,00,21,6.40
2011,04,10,00,22,3.20
2011,04,10,00,23,6.40
2011,04,10,00,24,6.40
2011,04,10,00,25,6.40
2011,04,10,00,26,9.60
2011,04,10,00,27,8.10
2011,04,10,00,28,6.40
2011,04,10,00,29,4.80
2011,04,10,00,30,6.40
2011,04,10,00,31,6.40
2011,04,10,00,32,6.40
2011,04,10,00,33,3.20
2011,04,10,00,34,3.20
2011,04,10,00,35,3.20
2011,04,10,00,36,6.40
2011,04,10,00,37,3.20
2011,04,10,00,38,3.20
2011,04,10,00,39,1.60
2011,04,10,00,40,1.60
2011,04,10,00,41,6.40
2011,04,10,00,42,11.30
2011,04,10,00,43,9.60
2011,04,10,00,44,9.60
2011,04,10,00,45,11.30
2011,04,10,00,46,8.10
2011,04,10,00,47,9.60
2011,04,10,00,48,8.10
2011,04,10,00,49,4.80
2011,04,10,00,50,9.60
2011,04,10,00,51,1.60
2011,04,10,00,52,6.40
2011,04,10,00,53,6.40
2011,04,10,00,54,6.40
2011,04,10,00,55,9.60
2011,04,10,00,56,4.80
2011,04,10,00,57,8.10
2011,04,10,00,58,9.60
2011,04,10,00,59,8.10
2011,04,10,01,00,6.40
2011,04,10,01,01,3.20
2011,04,10,01,02,8.10
2011,04,10,01,03,8.10
2011,04,10,01,04,6.40
2011,04,10,01,05,11.30
2011,04,10,01,06,9.60
2011,04,10,01,07,8.10
2011,04,10,01,08,3.20
2011,04,10,01,09,6.40
2011,04,10,01,10,6.40
2011,04,10,01,11,3.20
2011,04,10,01,12,6.40
2011,04,10,01,13,8.10
2011,04,10,01,14,8.10
2011,04,10,01,15,3.20
2011,04,10,01,16,3.20
2011,04,10,01,17,6.40
2011,04,10,01,18,8.10
2011,04,10,01,19,9.60
2011,04,10,01,20,6.40
2011,04,10,01,21,1.60
2011,04,10,01,22,8.10
2011,04,10,01,23,8.10
2011,04,10,01,24,6.40
2011,04,10,01,25,1.60
2011,04,10,01,26,3.20
2011,04,10,01,27,1.60
2011,04,10,01,28,3.20
2011,04,10,01,29,3.20
2011,04,10,01,30,6.40
2011,04,10,01,31,3.20
2011,04,10,01,32,3.20
2011,04,10,01,33,11.30
2011,04,10,01,34,6.40
2011,04,10,01,35,6.40
2011,04,10,01,36,1.60
2011,04,10,01,37,3.20
2011,04,10,01,38,3.20
2011,04,10,01,39,3.20
2011,04,10,01,40,3.20
2011,04,10,01,41,6.40
2011,04,10,01,42,3.20
2011,04,10,01,43,0.00
2011,04,10,01,44,1.60
2011,04,10,01,45,1.60
2011,04,10,01,46,3.20
2011,04,10,01,47,3.20
2011,04,10,01,48,3.20
2011,04,10,01,49,3.20
2011,04,10,01,50,3.20
2011,04,10,01,51,3.20
2011,04,10,01,52,1.60
2011,04,10,01,53,1.60
2011,04,10,01,54,3.20
2011,04,10,01,55,3.20
2011,04,10,01,56,6.40
2011,04,10,01,57,6.40
2011,04,10,01,58,3.20
2011,04,10,01,59,3.20
2011,04,10,02,00,3.20
2011,04,10,02,01,6.40
2011,04,10,02,02,6.40
2011,04,10,02,03,1.60
2011,04,10,02,04,1.60
2011,04,10,02,05,1.60
2011,04,10,02,06,0.00
2011,04,10,02,07,1.60
2011,04,10,02,08,0.00
2011,04,10,02,09,1.60
2011,04,10,02,10,0.00
2011,04,10,02,11,1.60
2011,04,10,02,12,0.00
2011,04,10,02,13,1.60
2011,04,10,02,14,1.60
2011,04,10,02,15,0.00
2011,04,10,02,16,0.00
2011,04,10,02,17,0.00
2011,04,10,02,18,1.60
2011,04,10,02,19,0.00
2011,04,10,02,20,1.60
2011,04,10,02,21,1.60
2011,04,10,02,22,1.60
2011,04,10,02,23,3.20
2011,04,10,02,24,3.20
2011,04,10,02,25,3.20
2011,04,10,02,26,1.60
2011,04,10,02,27,3.20
2011,04,10,02,28,3.20
2011,04,10,02,29,1.60
2011,04,10,02,30,0.00
2011,04,10,02,31,1.60
2011,04,10,02,32,0.00
2011,04,10,02,33,0.00
2011,04,10,02,34,1.60
2011,04,10,02,35,0.00
2011,04,10,02,36,0.00
2011,04,10,02,37,1.60
2011,04,10,02,38,0.00
2011,04,10,02,39,1.60
2011,04,10,02,40,1.60
2011,04,10,02,41,0.00
2011,04,10,02,42,0.00
2011,04,10,02,43,0.00
2011,04,10,02,44,1.60
2011,04,10,02,45,6.40
2011,04,10,02,46,3.20
2011,04,10,02,47,3.20
2011,04,10,02,48,1.60
2011,04,10,02,49,1.60
2011,04,10,02,50,1.60
2011,04,10,02,51,1.60
2011,04,10,02,52,1.60
2011,04,10,02,53,1.60
2011,04,10,02,54,0.00
2011,04,10,02,55,0.00
2011,04,10,02,56,0.00
2011,04,10,02,57,0.00
2011,04,10,02,58,3.20
2011,04,10,02,59,3.20
2011,04,10,03,00,3.20
2011,04,10,03,01,6.40
2011,04,10,03,02,6.40
2011,04,10,03,03,6.40
2011,04,10,03,04,1.60
2011,04,10,03,05,11.30
2011,04,10,03,06,8.10
2011,04,10,03,07,6.40
2011,04,10,03,08,11.30
2011,04,10,03,09,9.60
2011,04,10,03,10,11.30
2011,04,10,03,11,14.50
2011,04,10,03,12,8.10
2011,04,10,03,13,11.30
2011,04,10,03,14,9.60
2011,04,10,03,15,9.60
2011,04,10,03,16,3.20
2011,04,10,03,17,9.60
2011,04,10,03,18,11.30
2011,04,10,03,19,9.60
2011,04,10,03,20,9.60
2011,04,10,03,21,12.90
2011,04,10,03,22,9.60
2011,04,10,03,23,8.10
2011,04,10,03,24,9.60
2011,04,10,03,25,6.40
2011,04,10,03,26,6.40
2011,04,10,03,27,8.10
2011,04,10,03,28,6.40
2011,04,10,03,29,9.60
2011,04,10,03,30,8.10
2011,04,10,03,31,6.40
2011,04,10,03,32,3.20
2011,04,10,03,33,3.20
2011,04,10,03,34,6.40
2011,04,10,03,35,3.20
2011,04,10,03,36,1.60
2011,04,10,03,37,6.40
2011,04,10,03,38,6.40
2011,04,10,03,39,8.10
2011,04,10,03,40,1.60
2011,04,10,03,41,6.40
2011,04,10,03,42,9.60
2011,04,10,03,43,3.20
2011,04,10,03,44,6.40
2011,04,10,03,45,8.10
2011,04,10,03,46,6.40
2011,04,10,03,47,1.60
2011,04,10,03,48,3.20
2011,04,10,03,49,6.40
2011,04,10,03,50,8.10
2011,04,10,03,51,11.30
2011,04,10,03,52,11.30
2011,04,10,03,53,8.10
2011,04,10,03,54,9.60
2011,04,10,03,55,3.20
2011,04,10,03,56,6.40
2011,04,10,03,57,8.10
2011,04,10,03,58,3.20
2011,04,10,03,59,3.20
2011,04,10,04,00,6.40
2011,04,10,04,01,8.10
2011,04,10,04,02,6.40
2011,04,10,04,03,6.40
2011,04,10,04,04,8.10
2011,04,10,04,05,8.10
2011,04,10,04,06,3.20
2011,04,10,04,07,6.40
2011,04,10,04,08,8.10
2011,04,10,04,09,8.10
2011,04,10,04,10,8.10
2011,04,10,04,11,6.40
2011,04,10,04,12,8.10
2011,04,10,04,13,6.40
2011,04,10,04,14,3.20
2011,04,10,04,15,6.40
2011,04,10,04,16,6.40
2011,04,10,04,17,6.40
2011,04,10,04,18,1.60
2011,04,10,04,19,0.00
2011,04,10,04,20,1.60
2011,04,10,04,21,0.00
2011,04,10,04,22,3.20
2011,04,10,04,23,3.20
2011,04,10,04,24,0.00
2011,04,10,04,25,0.00
2011,04,10,04,26,0.00
2011,04,10,04,27,0.00
2011,04,10,04,28,0.00
2011,04,10,04,29,1.60
2011,04,10,04,30,3.20
2011,04,10,04,31,1.60
2011,04,10,04,32,1.60
2011,04,10,04,33,1.60
2011,04,10,04,34,1.60
2011,04,10,04,35,1.60
2011,04,10,04,36,0.00
2011,04,10,04,37,1.60
2011,04,10,04,38,0.00
2011,04,10,04,39,0.00
2011,04,10,04,40,1.60
2011,04,10,04,41,3.20
2011,04,10,04,42,3.20
2011,04,10,04,43,3.20
2011,04,10,04,44,1.60
2011,04,10,04,45,0.00
2011,04,10,04,46,8.10
2011,04,10,04,47,9.60
2011,04,10,04,48,3.20
2011,04,10,04,49,1.60
2011,04,10,04,50,3.20
2011,04,10,04,51,3.20
2011,04,10,04,52,3.20
2011,04,10,04,53,6.40
2011,04,10,04,54,8.10
2011,04,10,04,55,6.40
2011,04,10,04,56,3.20
2011,04,10,04,57,3.20
2011,04,10,04,58,1.60
2011,04,10,04,59,3.20
2011,04,10,05,00,3.20
2011,04,10,05,01,3.20
2011,04,10,05,02,6.40
2011,04,10,05,03,1.60
2011,04,10,05,04,3.20
2011,04,10,05,05,1.60
2011,04,10,05,06,1.60
2011,04,10,05,07,3.20
2011,04,10,05,08,8.10
2011,04,10,05,09,3.20
2011,04,10,05,10,9.60
2011,04,10,05,11,8.10
2011,04,10,05,12,6.40
2011,04,10,05,13,1.60
2011,04,10,05,14,3.20
2011,04,10,05,15,3.20
2011,04,10,05,16,8.10
2011,04,10,05,17,6.40
2011,04,10,05,18,3.20
2011,04,10,05,19,3.20
2011,04,10,05,20,6.40
2011,04,10,05,21,3.20
2011,04,10,05,22,6.40
2011,04,10,05,23,6.40
2011,04,10,05,24,3.20
2011,04,10,05,25,8.10
2011,04,10,05,26,6.40
2011,04,10,05,27,3.20
2011,04,10,05,28,8.10
2011,04,10,05,29,9.60
2011,04,10,05,30,6.40
2011,04,10,05,31,11.30
2011,04,10,05,32,6.40
2011,04,10,05,33,6.40
2011,04,10,05,34,6.40
2011,04,10,05,35,3.20
2011,04,10,05,36,8.10
2011,04,10,05,37,1.60
2011,04,10,05,38,0.00
2011,04,10,05,39,1.60
2011,04,10,05,40,3.20
2011,04,10,05,41,8.10
2011,04,10,05,42,8.10
2011,04,10,05,43,3.20
2011,04,10,05,44,1.60
2011,04,10,05,45,3.20
2011,04,10,05,46,6.40
2011,04,10,05,47,6.40
2011,04,10,05,48,1.60
2011,04,10,05,49,1.60
2011,04,10,05,50,3.20
2011,04,10,05,51,6.40
2011,04,10,05,52,6.40
2011,04,10,05,53,6.40
2011,04,10,05,54,6.40
2011,04,10,05,55,6.40
2011,04,10,05,56,6.40
2011,04,10,05,57,6.40
2011,04,10,05,58,6.40
2011,04,10,05,59,8.10
2011,04,10,06,00,3.20
2011,04,10,06,01,8.10
2011,04,10,06,02,3.20
2011,04,10,06,03,3.20
2011,04,10,06,04,8.10
2011,04,10,06,05,3.20
2011,04,10,06,06,8.10
2011,04,10,06,07,8.10
2011,04,10,06,08,3.20
2011,04,10,06,09,3.20
2011,04,10,06,10,3.20
2011,04,10,06,11,1.60
2011,04,10,06,12,3.20
2011,04,10,06,13,1.60
2011,04,10,06,14,6.40
2011,04,10,06,15,1.60
2011,04,10,06,16,3.20
2011,04,10,06,17,1.60
2011,04,10,06,18,6.40
2011,04,10,06,19,8.10
2011,04,10,06,20,6.40
2011,04,10,06,21,8.10
2011,04,10,06,22,6.40
2011,04,10,06,23,6.40
2011,04,10,06,24,1.60
2011,04,10,06,25,3.20
2011,04,10,06,26,6.40
2011,04,10,06,27,3.20
2011,04,10,06,28,6.40
2011,04,10,06,29,4.80
2011,04,10,06,30,8.10
2011,04,10,06,31,3.20
2011,04,10,06,32,8.10
2011,04,10,06,33,9.60
2011,04,10,06,34,8.10
2011,04,10,06,35,6.40
2011,04,10,06,36,8.10
2011,04,10,06,37,8.10
2011,04,10,06,38,8.10
2011,04,10,06,39,9.60
2011,04,10,06,40,6.40
2011,04,10,06,41,8.10
2011,04,10,06,42,6.40
2011,04,10,06,43,3.20
2011,04,10,06,44,8.10
2011,04,10,06,45,8.10
2011,04,10,06,46,11.30
2011,04,10,06,47,6.40
2011,04,10,06,48,11.30
2011,04,10,06,49,8.10
2011,04,10,06,50,9.60
2011,04,10,06,51,6.40
2011,04,10,06,52,8.10
2011,04,10,06,53,9.60
2011,04,10,06,54,14.50
2011,04,10,06,55,12.90
2011,04,10,06,56,8.10
2011,04,10,06,57,11.30
2011,04,10,06,58,9.60
2011,04,10,06,59,14.50
2011,04,10,07,00,9.60
2011,04,10,07,01,12.90
2011,04,10,07,02,8.10
2011,04,10,07,03,6.40
2011,04,10,07,04,8.10
2011,04,10,07,05,6.40
2011,04,10,07,06,11.30
2011,04,10,07,07,9.60
2011,04,10,07,08,8.10
2011,04,10,07,09,6.40
2011,04,10,07,10,11.30
2011,04,10,07,11,8.10
2011,04,10,07,12,9.60
2011,04,10,07,13,9.60
2011,04,10,07,14,11.30
2011,04,10,07,15,9.60
2011,04,10,07,16,9.60
2011,04,10,07,17,8.10
2011,04,10,07,18,12.90
2011,04,10,07,19,8.10
2011,04,10,07,20,3.20
2011,04,10,07,21,8.10
2011,04,10,07,22,8.10
2011,04,10,07,23,11.30
2011,04,10,07,24,11.30
2011,04,10,07,25,8.10
2011,04,10,07,26,11.30
2011,04,10,07,27,11.30
2011,04,10,07,28,11.30
2011,04,10,07,29,9.60
2011,04,10,07,30,6.40
2011,04,10,07,31,8.10
2011,04,10,07,32,8.10
2011,04,10,07,33,11.30
2011,04,10,07,34,8.10
2011,04,10,07,35,11.30
2011,04,10,07,36,9.60
2011,04,10,07,37,6.40
2011,04,10,07,38,9.60
2011,04,10,07,39,9.60
2011,04,10,07,40,11.30
2011,04,10,07,41,14.50
2011,04,10,07,42,9.60
2011,04,10,07,43,8.10
2011,04,10,07,44,3.20
2011,04,10,07,45,9.60
2011,04,10,07,46,11.30
2011,04,10,07,47,9.60
2011,04,10,07,48,9.60
2011,04,10,07,49,9.60
2011,04,10,07,50,12.90
2011,04,10,07,51,12.90
2011,04,10,07,52,8.10
2011,04,10,07,53,9.60
2011,04,10,07,54,9.60
2011,04,10,07,55,11.30
2011,04,10,07,56,8.10
2011,04,10,07,57,8.10
2011,04,10,07,58,8.10
2011,04,10,07,59,6.40
2011,04,10,08,00,6.40
2011,04,10,08,01,6.40
2011,04,10,08,02,1.60
2011,04,10,08,03,6.40
2011,04,10,08,04,8.10
2011,04,10,08,05,9.60
2011,04,10,08,06,9.60
2011,04,10,08,07,6.40
2011,04,10,08,08,8.10
2011,04,10,08,09,6.40
2011,04,10,08,10,6.40
2011,04,10,08,11,8.10
2011,04,10,08,12,11.30
2011,04,10,08,13,9.60
2011,04,10,08,14,6.40
2011,04,10,08,15,11.30
2011,04,10,08,16,9.60
2011,04,10,08,17,6.40
2011,04,10,08,18,6.40
2011,04,10,08,19,8.10
2011,04,10,08,20,9.60
2011,04,10,08,21,6.40
2011,04,10,08,22,12.90
2011,04,10,08,23,9.60
2011,04,10,08,24,8.10
2011,04,10,08,25,17.70
2011,04,10,08,26,8.10
2011,04,10,08,27,8.10
2011,04,10,08,28,14.50
2011,04,10,08,29,9.60
2011,04,10,08,30,20.90
2011,04,10,08,31,14.50
2011,04,10,08,32,8.10
2011,04,10,08,33,11.30
2011,04,10,08,34,19.30
2011,04,10,08,35,14.50
2011,04,10,08,36,11.30
2011,04,10,08,37,11.30
2011,04,10,08,38,17.70
2011,04,10,08,39,12.90
2011,04,10,08,40,14.50
2011,04,10,08,41,9.60
2011,04,10,08,42,8.10
2011,04,10,08,43,8.10
2011,04,10,08,44,19.30
2011,04,10,08,45,11.30
2011,04,10,08,46,9.60
2011,04,10,08,47,12.90
2011,04,10,08,48,16.10
2011,04,10,08,49,14.50
2011,04,10,08,50,11.30
2011,04,10,08,51,8.10
2011,04,10,08,52,9.60
2011,04,10,08,53,9.60
2011,04,10,08,54,12.90
2011,04,10,08,55,17.70
2011,04,10,08,56,9.60
2011,04,10,08,57,9.60
2011,04,10,08,58,12.90
2011,04,10,08,59,9.60
2011,04,10,09,00,11.30
2011,04,10,09,01,19.30
2011,04,10,09,02,14.50
2011,04,10,09,03,9.60
2011,04,10,09,04,14.50
2011,04,10,09,05,14.50
2011,04,10,09,06,14.50
2011,04,10,09,07,11.30
2011,04,10,09,08,11.30
2011,04,10,09,09,8.10
2011,04,10,09,10,9.60
2011,04,10,09,11,11.30
2011,04,10,09,12,22.50
2011,04,10,09,13,12.90
2011,04,10,09,14,12.90
2011,04,10,09,15,8.10
2011,04,10,09,16,11.30
2011,04,10,09,17,9.60
2011,04,10,09,18,9.60
2011,04,10,09,19,12.90
2011,04,10,09,20,12.90
2011,04,10,09,21,11.30
2011,04,10,09,22,9.60
2011,04,10,09,23,9.60
2011,04,10,09,24,11.30
2011,04,10,09,25,11.30
2011,04,10,09,26,9.60
2011,04,10,09,27,14.50
2011,04,10,09,28,11.30
2011,04,10,09,29,8.10
2011,04,10,09,30,9.60
2011,04,10,09,31,12.90
2011,04,10,09,32,14.50
2011,04,10,09,33,11.30
2011,04,10,09,34,12.90
2011,04,10,09,35,12.90
2011,04,10,09,36,11.30
2011,04,10,09,37,12.90
2011,04,10,09,38,11.30
2011,04,10,09,39,11.30
2011,04,10,09,40,9.60
2011,04,10,09,41,11.30
2011,04,10,09,42,8.10
2011,04,10,09,43,9.60
2011,04,10,09,44,14.50
2011,04,10,09,45,8.10
2011,04,10,09,46,14.50
2011,04,10,09,47,14.50
2011,04,10,09,48,9.60
2011,04,10,09,49,12.90
2011,04,10,09,50,9.60
2011,04,10,09,51,8.10
2011,04,10,09,52,6.40
2011,04,10,09,53,14.50
2011,04,10,09,54,14.50
2011,04,10,09,55,12.90
2011,04,10,09,56,12.90
2011,04,10,09,57,8.10
2011,04,10,09,58,11.30
2011,04,10,09,59,12.90
2011,04,10,10,00,9.60
2011,04,10,10,01,8.10
2011,04,10,10,02,14.50
2011,04,10,10,03,11.30
2011,04,10,10,04,8.10
2011,04,10,10,05,8.10
2011,04,10,10,06,12.90
2011,04,10,10,07,11.30
2011,04,10,10,08,11.30
2011,04,10,10,09,14.50
2011,04,10,10,10,9.60
2011,04,10,10,11,11.30
2011,04,10,10,12,17.70
2011,04,10,10,13,11.30
2011,04,10,10,14,8.10
2011,04,10,10,15,9.60
2011,04,10,10,16,11.30
2011,04,10,10,17,14.50
2011,04,10,10,18,11.30
2011,04,10,10,19,8.10
2011,04,10,10,20,19.30
2011,04,10,10,21,14.50
2011,04,10,10,22,12.90
2011,04,10,10,23,9.60
2011,04,10,10,24,11.30
2011,04,10,10,25,3.20
2011,04,10,10,26,11.30
2011,04,10,10,27,9.60
2011,04,10,10,28,11.30
2011,04,10,10,29,11.30
2011,04,10,10,30,14.50
2011,04,10,10,31,11.30
2011,04,10,10,32,12.90
2011,04,10,10,33,8.10
2011,04,10,10,34,11.30
2011,04,10,10,35,14.50
2011,04,10,10,36,17.70
2011,04,10,10,37,17.70
2011,04,10,10,38,22.50
2011,04,10,10,39,14.50
2011,04,10,10,40,17.70
2011,04,10,10,41,12.90
2011,04,10,10,42,11.30
2011,04,10,10,43,3.20
2011,04,10,10,44,11.30
2011,04,10,10,45,12.90
2011,04,10,10,46,19.30
2011,04,10,10,47,22.50
2011,04,10,10,48,20.90
2011,04,10,10,49,20.90
2011,04,10,10,50,19.30
2011,04,10,10,51,17.70
2011,04,10,10,52,17.70
2011,04,10,10,53,11.30
2011,04,10,10,54,20.90
2011,04,10,10,55,14.50
2011,04,10,10,56,12.90
2011,04,10,10,57,29.00
2011,04,10,10,58,25.70
2011,04,10,10,59,20.90
2011,04,10,11,00,17.70
2011,04,10,11,01,24.20
2011,04,10,11,02,17.70
2011,04,10,11,03,30.60
2011,04,10,11,04,30.60
2011,04,10,11,05,19.30
2011,04,10,11,06,24.20
2011,04,10,11,07,20.90
2011,04,10,11,08,16.10
2011,04,10,11,09,19.30
2011,04,10,11,10,25.70
2011,04,10,11,11,22.50
2011,04,10,11,12,32.20
2011,04,10,11,13,30.60
2011,04,10,11,14,22.50
2011,04,10,11,15,20.90
2011,04,10,11,16,35.40
2011,04,10,11,17,32.20
2011,04,10,11,18,29.00
2011,04,10,11,19,25.70
2011,04,10,11,20,27.40
2011,04,10,11,21,33.80
2011,04,10,11,22,38.60
2011,04,10,11,23,33.80
2011,04,10,11,24,32.20
2011,04,10,11,25,37.00
2011,04,10,11,26,20.90
2011,04,10,11,27,32.20
2011,04,10,11,28,29.00
2011,04,10,11,29,27.40
2011,04,10,11,30,24.20
2011,04,10,11,31,30.60
2011,04,10,11,32,17.70
2011,04,10,11,33,24.20
2011,04,10,11,34,32.20
2011,04,10,11,35,32.20
2011,04,10,11,36,32.20
2011,04,10,11,37,17.70
2011,04,10,11,38,33.80
2011,04,10,11,39,38.60
2011,04,10,11,40,27.40
2011,04,10,11,41,12.90
2011,04,10,11,42,19.30
2011,04,10,11,43,30.60
2011,04,10,11,44,33.80
2011,04,10,11,45,17.70
2011,04,10,11,46,20.90
2011,04,10,11,47,22.50
2011,04,10,11,48,29.00
2011,04,10,11,49,12.90
2011,04,10,11,50,29.00
2011,04,10,11,51,35.40
2011,04,10,11,52,29.00
2011,04,10,11,53,33.80
2011,04,10,11,54,17.70
2011,04,10,11,55,19.30
2011,04,10,11,56,19.30
2011,04,10,11,57,20.90
2011,04,10,11,58,17.70
2011,04,10,11,59,24.20
2011,04,10,12,00,24.20
2011,04,10,12,01,22.50
2011,04,10,12,02,20.90
2011,04,10,12,03,14.50
2011,04,10,12,04,16.10
2011,04,10,12,05,6.40
2011,04,10,12,06,11.30
2011,04,10,12,07,17.70
2011,04,10,12,08,14.50
2011,04,10,12,09,14.50
2011,04,10,12,10,11.30
2011,04,10,12,11,8.10
2011,04,10,12,12,11.30
2011,04,10,12,13,20.90
2011,04,10,12,14,11.30
2011,04,10,12,15,22.50
2011,04,10,12,16,24.20
2011,04,10,12,17,35.40
2011,04,10,12,18,22.50
2011,04,10,12,19,24.20
2011,04,10,12,20,20.90
2011,04,10,12,21,24.20
2011,04,10,12,22,20.90
2011,04,10,12,23,14.50
2011,04,10,12,24,32.20
2011,04,10,12,25,33.80
2011,04,10,12,26,20.90
2011,04,10,12,27,20.90
2011,04,10,12,28,17.70
2011,04,10,12,29,20.90
2011,04,10,12,30,32.20
2011,04,10,12,31,29.00
2011,04,10,12,32,33.80
2011,04,10,12,33,30.60
2011,04,10,12,34,32.20
2011,04,10,12,35,35.40
2011,04,10,12,36,25.70
2011,04,10,12,37,29.00
2011,04,10,12,38,19.30
2011,04,10,12,39,24.20
2011,04,10,12,40,27.40
2011,04,10,12,41,32.20
2011,04,10,12,42,30.60
2011,04,10,12,43,17.70
2011,04,10,12,44,30.60
2011,04,10,12,45,40.20
2011,04,10,12,46,19.30
2011,04,10,12,47,14.50
2011,04,10,12,48,32.20
2011,04,10,12,49,22.50
2011,04,10,12,50,20.90
2011,04,10,12,51,14.50
2011,04,10,12,52,16.10
2011,04,10,12,53,12.90
2011,04,10,12,54,22.50
2011,04,10,12,55,30.60
2011,04,10,12,56,35.40
2011,04,10,12,57,22.50
2011,04,10,12,58,22.50
2011,04,10,12,59,37.00
2011,04,10,13,00,17.70
2011,04,10,13,01,16.10
2011,04,10,13,02,25.70
2011,04,10,13,03,17.70
2011,04,10,13,04,22.50
2011,04,10,13,05,17.70
2011,04,10,13,06,20.90
2011,04,10,13,07,19.30
2011,04,10,13,08,20.90
2011,04,10,13,09,24.20
2011,04,10,13,10,14.50
2011,04,10,13,11,17.70
2011,04,10,13,12,20.90
2011,04,10,13,13,22.50
2011,04,10,13,14,22.50
2011,04,10,13,15,25.70
2011,04,10,13,16,25.70
2011,04,10,13,17,33.80
2011,04,10,13,18,35.40
2011,04,10,13,19,25.70
2011,04,10,13,20,17.70
2011,04,10,13,21,22.50
2011,04,10,13,22,32.20
2011,04,10,13,23,19.30
2011,04,10,13,24,12.90
2011,04,10,13,25,24.20
2011,04,10,13,26,20.90
2011,04,10,13,27,24.20
2011,04,10,13,28,9.60
2011,04,10,13,29,33.80
2011,04,10,13,30,20.90
2011,04,10,13,31,27.40
2011,04,10,13,32,19.30
2011,04,10,13,33,25.70
2011,04,10,13,34,33.80
2011,04,10,13,35,35.40
2011,04,10,13,36,41.80
2011,04,10,13,37,32.20
2011,04,10,13,38,27.40
2011,04,10,13,39,38.60
2011,04,10,13,40,22.50
2011,04,10,13,41,24.20
2011,04,10,13,42,25.70
2011,04,10,13,43,22.50
2011,04,10,13,44,30.60
2011,04,10,13,45,20.90
2011,04,10,13,46,25.70
2011,04,10,13,47,27.40
2011,04,10,13,48,33.80
2011,04,10,13,49,19.30
2011,04,10,13,50,20.90
2011,04,10,13,51,27.40
2011,04,10,13,52,14.50
2011,04,10,13,53,19.30
2011,04,10,13,54,22.50
2011,04,10,13,55,24.20
2011,04,10,13,56,30.60
2011,04,10,13,57,35.40
2011,04,10,13,58,29.00
2011,04,10,13,59,32.20
2011,04,10,14,00,33.80
2011,04,10,14,01,24.20
2011,04,10,14,02,25.70
2011,04,10,14,03,9.60
2011,04,10,14,04,17.70
2011,04,10,14,05,20.90
2011,04,10,14,06,25.70
2011,04,10,14,07,32.20
2011,04,10,14,08,22.50
2011,04,10,14,09,20.90
2011,04,10,14,10,12.90
2011,04,10,14,11,22.50
2011,04,10,14,12,22.50
2011,04,10,14,13,24.20
2011,04,10,14,14,25.70
2011,04,10,14,15,22.50
2011,04,10,14,16,12.90
2011,04,10,14,17,33.80
2011,04,10,14,18,22.50
2011,04,10,14,19,19.30
2011,04,10,14,20,22.50
2011,04,10,14,21,24.20
2011,04,10,14,22,19.30
2011,04,10,14,23,33.80
2011,04,10,14,24,33.80
2011,04,10,14,25,25.70
2011,04,10,14,26,25.70
2011,04,10,14,27,22.50
2011,04,10,14,28,19.30
2011,04,10,14,29,22.50
2011,04,10,14,30,29.00
2011,04,10,14,31,19.30
2011,04,10,14,32,22.50
2011,04,10,14,33,29.00
2011,04,10,14,34,24.20
2011,04,10,14,35,19.30
2011,04,10,14,36,16.10
2011,04,10,14,37,14.50
2011,04,10,14,38,29.00
2011,04,10,14,39,29.00
2011,04,10,14,40,30.60
2011,04,10,14,41,19.30
2011,04,10,14,42,14.50
2011,04,10,14,43,27.40
2011,04,10,14,44,19.30
2011,04,10,14,45,11.30
2011,04,10,14,46,12.90
2011,04,10,14,47,11.30
2011,04,10,14,48,22.50
2011,04,10,14,49,12.90
2011,04,10,14,50,14.50
2011,04,10,14,51,12.90
2011,04,10,14,52,12.90
2011,04,10,14,53,11.30
2011,04,10,14,54,11.30
2011,04,10,14,55,12.90
2011,04,10,14,56,11.30
2011,04,10,14,57,19.30
2011,04,10,14,58,19.30
2011,04,10,14,59,22.50
2011,04,10,15,00,22.50
2011,04,10,15,01,20.90
2011,04,10,15,02,30.60
2011,04,10,15,03,25.70
2011,04,10,15,04,22.50
2011,04,10,15,05,19.30
2011,04,10,15,06,20.90
2011,04,10,15,07,16.10
2011,04,10,15,08,20.90
2011,04,10,15,09,20.90
2011,04,10,15,10,12.90
2011,04,10,15,11,22.50
2011,04,10,15,12,20.90
2011,04,10,15,13,17.70
2011,04,10,15,14,19.30
2011,04,10,15,15,9.60
2011,04,10,15,16,8.10
2011,04,10,15,17,20.90
2011,04,10,15,18,11.30
2011,04,10,15,19,14.50
2011,04,10,15,20,22.50
2011,04,10,15,21,12.90
2011,04,10,15,22,6.40
2011,04,10,15,23,8.10
2011,04,10,15,24,8.10
2011,04,10,15,25,14.50
2011,04,10,15,26,12.90
2011,04,10,15,27,6.40
2011,04,10,15,28,6.40
2011,04,10,15,29,6.40
2011,04,10,15,30,14.50
2011,04,10,15,31,17.70
2011,04,10,15,32,8.10
2011,04,10,15,33,9.60
2011,04,10,15,34,11.30
2011,04,10,15,35,8.10
2011,04,10,15,36,14.50
2011,04,10,15,37,14.50
2011,04,10,15,38,12.90
2011,04,10,15,39,12.90
2011,04,10,15,40,11.30
2011,04,10,15,41,11.30
2011,04,10,15,42,14.50
2011,04,10,15,43,8.10
2011,04,10,15,44,9.60
2011,04,10,15,45,12.90
2011,04,10,15,46,14.50
2011,04,10,15,47,25.70
2011,04,10,15,48,12.90
2011,04,10,15,49,25.70
2011,04,10,15,50,14.50
2011,04,10,15,51,14.50
2011,04,10,15,52,20.90
2011,04,10,15,53,33.80
2011,04,10,15,54,37.00
2011,04,10,15,55,19.30
2011,04,10,15,56,11.30
2011,04,10,15,57,14.50
2011,04,10,15,58,14.50
2011,04,10,15,59,30.60
2011,04,10,16,00,30.60
2011,04,10,16,01,19.30
2011,04,10,16,02,22.50
2011,04,10,16,03,19.30
2011,04,10,16,04,19.30
2011,04,10,16,05,33.80
2011,04,10,16,06,27.40
2011,04,10,16,07,22.50
2011,04,10,16,08,27.40
2011,04,10,16,09,25.70
2011,04,10,16,10,29.00
2011,04,10,16,11,24.20
2011,04,10,16,12,19.30
2011,04,10,16,13,22.50
2011,04,10,16,14,19.30
2011,04,10,16,15,35.40
2011,04,10,16,16,24.20
2011,04,10,16,17,24.20
2011,04,10,16,18,17.70
2011,04,10,16,19,19.30
2011,04,10,16,20,16.10
2011,04,10,16,21,12.90
2011,04,10,16,22,24.20
2011,04,10,16,23,27.40
2011,04,10,16,24,35.40
2011,04,10,16,25,12.90
2011,04,10,16,26,17.70
2011,04,10,16,27,30.60
2011,04,10,16,28,19.30
2011,04,10,16,29,14.50
2011,04,10,16,30,20.90
2011,04,10,16,31,22.50
2011,04,10,16,32,29.00
2011,04,10,16,33,27.40
2011,04,10,16,34,37.00
2011,04,10,16,35,19.30
2011,04,10,16,36,12.90
2011,04,10,16,37,14.50
2011,04,10,16,38,16.10
2011,04,10,16,39,20.90
2011,04,10,16,40,14.50
2011,04,10,16,41,12.90
2011,04,10,16,42,14.50
2011,04,10,16,43,11.30
2011,04,10,16,44,19.30
2011,04,10,16,45,22.50
2011,04,10,16,46,29.00
2011,04,10,16,47,17.70
2011,04,10,16,48,16.10
2011,04,10,16,49,24.20
2011,04,10,16,50,24.20
2011,04,10,16,51,24.20
2011,04,10,16,52,22.50
2011,04,10,16,53,14.50
2011,04,10,16,54,17.70
2011,04,10,16,55,9.60
2011,04,10,16,56,9.60
2011,04,10,16,57,9.60
2011,04,10,16,58,19.30
2011,04,10,16,59,17.70
2011,04,10,17,00,22.50
2011,04,10,17,01,14.50
2011,04,10,17,02,8.10
2011,04,10,17,03,14.50
2011,04,10,17,04,20.90
2011,04,10,17,05,9.60
2011,04,10,17,06,16.10
2011,04,10,17,07,12.90
2011,04,10,17,08,12.90
2011,04,10,17,09,11.30
2011,04,10,17,10,12.90
2011,04,10,17,11,11.30
2011,04,10,17,12,8.10
2011,04,10,17,13,6.40
2011,04,10,17,14,12.90
2011,04,10,17,15,11.30
2011,04,10,17,16,6.40
2011,04,10,17,17,8.10
2011,04,10,17,18,17.70
2011,04,10,17,19,17.70
2011,04,10,17,20,9.60
2011,04,10,17,21,9.60
2011,04,10,17,22,12.90
2011,04,10,17,23,8.10
2011,04,10,17,24,17.70
2011,04,10,17,25,14.50
2011,04,10,17,26,11.30
2011,04,10,17,27,9.60
2011,04,10,17,28,14.50
2011,04,10,17,29,9.60
2011,04,10,17,30,14.50
2011,04,10,17,31,14.50
2011,04,10,17,32,9.60
2011,04,10,17,33,14.50
2011,04,10,17,34,19.30
2011,04,10,17,35,14.50
2011,04,10,17,36,12.90
2011,04,10,17,37,20.90
2011,04,10,17,38,20.90
2011,04,10,17,39,12.90
2011,04,10,17,40,11.30
2011,04,10,17,41,17.70
2011,04,10,17,42,17.70
2011,04,10,17,43,20.90
2011,04,10,17,44,24.20
2011,04,10,17,45,14.50